Location: Ellerstadt
(49.4644°N, 8.2615°E)
Time: 03:39:14
(UTC+00:00)

Cosmos 1500 - Pass Details

Date: 03 March 2021
Orbit: 499 x 517 km, 82.5° (Epoch: 16 April)

Event Time Altitude Azimuth Distance (km) Brightness Sun altitude
Rises 18:47:54 0° 194° (SSW) 2,580 6.8 -16.1°
Reaches altitude 10° 18:50:01 10° 197° (SSW) 1,701 5.9 -16.5°
Maximum altitude 18:53:44 70° 281° (W) 539 3.4 -17.1°
Drops below altitude 10° 18:57:29 10° 6° (N) 1,717 5.9 -17.7°
Sets 18:59:37 0° 8° (N) 2,608 6.8 -18.0°
